Terminal Aerodrome Forecast
Issued by NWS Upton, NY

Home | Current Version | Previous Version | Text Only | Print | Product List | Glossary On
Versions: 1 2 3 4 5 6 7 8 9 10 11 12 13 14 15 16 17 18 19 20 21 22 23 24 25 26 27 28
367
FTUS41 KOKX 221125
TAFLGA
TAF
KLGA 221125Z 2212/2312 31012KT P6SM FEW060
     FM221400 29014G23KT P6SM SCT060
     FM221700 27017G26KT P6SM BKN060
     FM222200 32018G28KT P6SM BKN060
     FM230200 32016G25KT P6SM SCT060
     FM230800 33010KT P6SM SKC=

USA.gov is the U.S. government's official web portal to all federal, state and local government web resources and services.